This demonstration page uses our WeatherBlox Daily Observations layout. Learn more.

Left ArrowRight Arrow

39.12711, -84.51439

Hourly Observations for August 2, 2016

Temp ( °F °C ) Dew Point ( °F °C ) Humidity (%) Winds ( mph kmh ) Pressure ( in mb ) Visibility ( mi km ) Precip ( " mm )
12:53 am 00:53 Clear with Mist and Fog 71 21.7 71 21.7 100 100 N N/A 30.05 1018 6 10 N/A
1:53 am 01:53 Clear 71 21.7 71 21.7 100 100 NE 3 6 30.05 1018 7 11 N/A
2:30 am 02:30 Mostly Clear with Mist and Fog 70 21 70 21 100 100 N N/A 30.03 1017 3 4 N/A
2:39 am 02:39 Mostly Cloudy with Mist and Fog 69 20.6 69 20.6 100 100 N N/A 30.03 1017 2 2 N/A
2:44 am 02:44 Mostly Cloudy with Mist and Fog 70 21 70 21 100 100 N N/A 30.03 1017 3 5 N/A
2:53 am 02:53 Cloudy with Mist and Fog 70 21.1 70 21.1 100 100 N N/A 30.05 1018 5 8 N/A
3:50 am 03:50 Cloudy with Mist and Fog 72 22 72 22 100 100 N N/A 30.03 1017 3 5 N/A
3:53 am 03:53 Cloudy with Mist and Fog 71 21.7 71 21.7 100 100 N N/A 30.05 1018 2 3 N/A
4:01 am 04:01 Mostly Cloudy with Mist and Fog 71 21.7 71 21.7 100 100 N N/A 30.03 1017 1 2 N/A
4:09 am 04:09 Mostly Cloudy with Fog 71 21.7 71 21.7 100 100 N N/A 30.03 1017 1 1 N/A
4:16 am 04:16 Mostly Cloudy with Fog 72 22 72 22 100 100 N N/A 30.03 1017 0 0 N/A
4:53 am 04:53 Mostly Cloudy with Fog 71 21.7 71 21.7 100 100 NE 3 6 30.04 1017 0 0 N/A
5:14 am 05:14 Mostly Cloudy with Fog 70 21 70 21 100 100 NE 3 6 30.03 1017 1 1 N/A
5:25 am 05:25 Cloudy with Mist and Fog 70 21.1 70 21.1 100 100 N N/A 30.03 1017 1 2 N/A
5:49 am 05:49 Cloudy with Mist and Fog 72 22 72 22 100 100 N N/A 30.00 1016 2 2 N/A
5:53 am 05:53 Cloudy with Mist and Fog 71 21.7 71 21.7 100 100 N N/A 30.03 1017 2 3 N/A
6:01 am 06:01 Cloudy with Mist and Fog 71 21.7 71 21.7 100 100 N N/A 30.03 1017 2 3 N/A
6:08 am 06:08 Cloudy with Mist and Fog 72 22 72 22 100 100 N N/A 30.03 1017 1 2 N/A
6:16 am 06:16 Mostly Cloudy with Mist and Fog 72 22 72 22 100 100 N N/A 30.03 1017 1 1 N/A
6:33 am 06:33 Mostly Cloudy with Fog 71 21.7 71 21.7 100 100 N N/A 30.03 1017 0 0 N/A
6:53 am 06:53 Mostly Cloudy with Fog 71 21.7 71 21.7 100 100 NE 3 6 30.04 1017 0 0 N/A
7:53 am 07:53 Mostly Cloudy with Fog 71 21.7 71 21.7 100 100 N N/A 30.05 1018 0 0 N/A
8:03 am 08:03 Mostly Cloudy with Fog 72 22 72 22 100 100 N N/A 30.03 1017 1 1 N/A
8:07 am 08:07 Cloudy with Mist and Fog 71 21.7 71 21.7 100 100 N N/A 30.03 1017 1 2 N/A
8:27 am 08:27 Cloudy with Mist and Fog 71 21.7 71 21.7 100 100 N N/A 30.06 1018 2 3 N/A
8:48 am 08:48 Cloudy with Mist and Fog 72 22 72 22 100 100 N N/A 30.06 1018 2 3 N/A
8:53 am 08:53 Cloudy with Mist and Fog 72 22.2 72 22.2 100 100 N N/A 30.07 1018 2 3 N/A
9:31 am 09:31 Cloudy with Mist and Fog 75 23.9 73 22.8 94 94 NE 3 6 30.06 1018 4 6 N/A
9:53 am 09:53 Mostly Cloudy with Mist and Fog 75 23.9 74 23.3 96 96 N 5 7 30.06 1018 4 6 N/A
10:23 am 10:23 Partly Cloudy 78 25.6 74 23.3 87 87 N 5 7 30.06 1018 8 13 N/A
10:53 am 10:53 Mostly Cloudy 78 25.6 73 22.8 85 85 WSW 3 6 30.07 1018 9 14 N/A
11:16 am 11:16 Cloudy 79 26 73 23 84 84 N N/A 30.06 1018 9 14 N/A
11:53 am 11:53 Partly Cloudy 81 27.2 73 22.8 77 77 N N/A 30.07 1018 10 16 N/A
12:53 pm 12:53 Partly Cloudy 84 28.9 72 22.2 67 67 VRB 3 6 30.07 1018 10 16 N/A
1:53 pm 13:53 Partly Cloudy 86 30 71 21.7 61 61 E 6 9 30.06 1018 10 16 N/A
2:53 pm 14:53 Partly Cloudy 87 30.6 69 20.6 55 55 SSE 3 6 30.05 1018 10 16 N/A
3:53 pm 15:53 Mostly Sunny 88 31.1 68 20 52 52 N N/A 30.03 1017 10 16 N/A
4:53 pm 16:53 Mostly Sunny 90 32.2 68 20 48 48 ENE 6 9 30.01 1016 10 16 N/A
5:53 pm 17:53 Mostly Sunny 88 31.1 67 19.4 50 50 ENE 5 7 30.00 1016 10 16 N/A
6:53 pm 18:53 Mostly Cloudy 84 28.9 71 21.7 65 65 N N/A 30.00 1016 10 16 N/A
7:53 pm 19:53 Mostly Cloudy 84 28.9 72 22.2 67 67 NE 3 6 29.99 1016 10 16 N/A
8:53 pm 20:53 Clear 79 26.1 73 22.8 82 82 N N/A 30.00 1016 10 16 N/A
9:53 pm 21:53 Clear 75 23.9 72 22.2 90 90 N N/A 30.02 1017 10 16 N/A
10:53 pm 22:53 Clear 73 22.8 72 22.2 96 96 N N/A 30.03 1017 9 14 N/A
11:53 pm 23:53 Clear 72 22.2 71 21.7 97 97 N N/A 30.03 1017 8 13 N/A

Powered by AerisWeather